Location: Berg
(48.4333°N, 13.9167°E)
Time: 09:10:25
(UTC+00:00)

Cosmos 1464 Rocket - Pass Details

Date: 18 September 2020
Orbit: 953 x 1000 km, 82.9° (Epoch: 27 October)

Event Time Altitude Azimuth Distance (km) Brightness Sun altitude
Rises 17:57:45 0° 165° (SSE) 3,616 6.7 -8.7°
Reaches altitude 10° 18:00:20 10° 159° (SSE) 2,676 6.0 -9.1°
Maximum altitude 18:06:03 44° 89° (E) 1,308 4.3 -10.0°
Drops below altitude 10° 18:11:50 10° 20° (NNE) 2,708 6.3 -11.0°
Sets 18:14:28 0° 14° (NNE) 3,665 7.0 -11.4°
